Cameron, WI

6:11 PM CST on February 27, 2017 (GMT -0600)
Rice Lake Regional-Carl's

Weather History for KRPD - May, 2013

Change the Weather History Date:

Wednesday, May 1, 2013

  Actual Average Record
Temperature  
Mean Temperature 42 °F -  
Max Temperature 53 °F 61 °F 80 °F (2001)
Min Temperature 32 °F 39 °F 30 °F (1997)
Degree Days  
Heating Degree Days 22    
Moisture  
Dew Point 34 °F    
Average Humidity 82    
Maximum Humidity 100    
Minimum Humidity 44    
Precipitation  
Precipitation 0.56 in - - ()
Sea Level Pressure  
Sea Level Pressure 30.26 in    
Wind  
Wind Speed 5 mph (NW)    
Max Wind Speed 13 mph    
Max Gust Speed 20 mph    
Visibility 7 miles    
Events Rain , Snow    
Averages and records for this station are not official NWS values.
T = Trace of Precipitation, MM = Missing Value Source: NWS Daily Summary

Daily Weather History Graph

Daily Weather History Graph

Search for Another Location

Airport or City:

Trip Planner

Search our weather history database for the weather conditions in past years. The results will help you decide how hot, cold, wet, or windy it might be!

Date:

Astronomy

May. 01, 2013 Rise Set
Actual Time 5:55 AM CDT 8:14 PM CDT
Civil Twilight 5:22 AM CDT 8:46 PM CDT
Nautical Twilight 4:41 AM CDT 9:27 PM CDT
Astronomical Twilight 3:56 AM CDT 10:13 PM CDT
Moon 1:24 AM CDT (5/1) 11:33 AM CDT (5/1)
Length of Visible Light 15h 24m
Length of Day
14h 19m
Waning Gibbous, 59% of the Moon is Illuminated
May 1
Waning Gibbous
May 2
Last Quarter
May 9
New
May 17
First Quarter
May 24
Full

Hourly Weather History & Observations

Time (CDT) Temp. Windchill Dew Point Humidity Pressure Visibility Wind Dir Wind Speed Gust Speed Precip Events Conditions
12:15 AM 53.6 °F - 32.0 °F 44% 29.96 in 10.0 mi SW 3.5 mph - N/A   Mostly Cloudy
12:35 AM 51.8 °F - 33.8 °F 50% 29.98 in 10.0 mi SW 3.5 mph - N/A   Mostly Cloudy
12:55 AM 53.6 °F - 33.8 °F 47% 29.98 in 10.0 mi WSW 3.5 mph - N/A   Overcast
1:15 AM 53.6 °F - 33.8 °F 47% 29.99 in 10.0 mi West 3.5 mph - N/A   Overcast
1:35 AM 51.8 °F - 35.6 °F 54% 29.99 in 10.0 mi Calm Calm - N/A   Overcast
1:55 AM 53.6 °F - 33.8 °F 47% 29.99 in 10.0 mi NW 5.8 mph - N/A   Overcast
2:15 AM 53.6 °F - 33.8 °F 47% 29.98 in 10.0 mi Calm Calm - N/A   Overcast
2:35 AM 51.8 °F - 33.8 °F 50% 29.99 in 10.0 mi WNW 3.5 mph - N/A   Overcast
2:55 AM 51.8 °F - 35.6 °F 54% 30.01 in 10.0 mi WNW 8.1 mph - N/A   Overcast
3:15 AM 51.8 °F - 33.8 °F 50% 30.04 in 10.0 mi WNW 10.4 mph 17.3 mph N/A   Overcast
3:35 AM 51.8 °F - 33.8 °F 50% 30.04 in 10.0 mi WNW 8.1 mph - N/A   Overcast
3:55 AM 51.8 °F - 33.8 °F 50% 30.06 in 10.0 mi West 8.1 mph - N/A   Overcast
4:15 AM 50.0 °F - 33.8 °F 54% 30.07 in 10.0 mi WNW 6.9 mph - N/A   Overcast
4:35 AM 50.0 °F - 33.8 °F 54% 30.09 in 10.0 mi West 5.8 mph - N/A   Overcast
4:55 AM 50.0 °F - 35.6 °F 58% 30.09 in 10.0 mi West 6.9 mph - N/A Rain Rain
5:35 AM 44.6 °F 42.2 °F 37.4 °F 76% 30.08 in 4.0 mi NNW 4.6 mph - 0.10 in Rain Rain
5:55 AM 44.6 °F - 39.2 °F 81% 30.10 in 4.0 mi Calm Calm - 0.14 in Rain Rain
6:15 AM 42.8 °F - 39.2 °F 87% 30.11 in 7.0 mi Calm Calm - 0.02 in Rain Light Rain
6:35 AM 42.8 °F - 41.0 °F 93% 30.14 in 5.0 mi Calm Calm - 0.05 in Rain Rain
6:55 AM 42.8 °F 40.1 °F 41.0 °F 93% 30.15 in 7.0 mi West 4.6 mph - 0.08 in Rain Rain
7:15 AM 42.8 °F 39.3 °F 41.0 °F 93% 30.17 in 7.0 mi West 5.8 mph - 0.01 in   Drizzle
7:35 AM 42.8 °F 38.6 °F 41.0 °F 93% 30.19 in 10.0 mi West 6.9 mph - 0.01 in   Overcast
7:55 AM 42.8 °F 36.6 °F 39.2 °F 87% 30.22 in 10.0 mi West 11.5 mph - 0.01 in   Overcast
8:15 AM 42.8 °F 37.0 °F 35.6 °F 76% 30.23 in 7.0 mi WNW 10.4 mph 17.3 mph N/A   Overcast
8:35 AM 41.0 °F 36.4 °F 35.6 °F 81% 30.22 in 10.0 mi NW 6.9 mph - N/A   Light Drizzle
8:55 AM 41.0 °F 36.4 °F 37.4 °F 87% 30.23 in 10.0 mi NW 6.9 mph - N/A   Overcast
9:15 AM 41.0 °F 36.4 °F 35.6 °F 81% 30.25 in 10.0 mi WNW 6.9 mph - N/A Rain Light Rain
9:35 AM 41.0 °F 37.1 °F 35.6 °F 81% 30.26 in 10.0 mi NW 5.8 mph - N/A   Light Drizzle
9:55 AM 39.2 °F 33.6 °F 35.6 °F 87% 30.25 in 10.0 mi NNW 8.1 mph - N/A   Overcast
10:15 AM 39.2 °F 34.2 °F 35.6 °F 87% 30.24 in 10.0 mi NW 6.9 mph - N/A   Overcast
10:35 AM 41.0 °F 35.8 °F 35.6 °F 81% 30.25 in 10.0 mi WNW 8.1 mph - N/A   Overcast
10:55 AM 41.0 °F 37.1 °F 35.6 °F 81% 30.26 in 10.0 mi NW 5.8 mph - N/A   Overcast
11:15 AM 39.2 °F 33.0 °F 35.6 °F 87% 30.26 in 10.0 mi NW 9.2 mph - N/A   Overcast
11:35 AM 41.0 °F 36.4 °F 35.6 °F 81% 30.26 in 10.0 mi NNW 6.9 mph - N/A   Overcast
11:55 AM 39.2 °F 34.2 °F 35.6 °F 87% 30.26 in 10.0 mi North 6.9 mph - N/A   Overcast
12:15 PM 41.0 °F 35.8 °F 35.6 °F 81% 30.29 in 10.0 mi WNW 8.1 mph - N/A   Overcast
12:35 PM 39.2 °F 33.0 °F 33.8 °F 81% 30.30 in 10.0 mi WNW 9.2 mph - N/A   Overcast
12:55 PM 39.2 °F 33.6 °F 35.6 °F 87% 30.30 in 10.0 mi NW 8.1 mph - N/A   Overcast
1:15 PM 37.4 °F 30.3 °F 33.8 °F 87% 30.32 in 7.0 mi WNW 10.4 mph - N/A   Overcast
1:35 PM 37.4 °F 31.4 °F 33.8 °F 87% 30.31 in 5.0 mi NW 8.1 mph - N/A   Overcast
1:55 PM 37.4 °F 31.4 °F 33.8 °F 87% 30.32 in 10.0 mi NW 8.1 mph - N/A   Overcast
2:15 PM 37.4 °F 30.8 °F 33.8 °F 87% 30.32 in 10.0 mi NNW 9.2 mph - N/A   Overcast
2:35 PM 37.4 °F 32.1 °F 32.0 °F 81% 30.33 in 10.0 mi NW 6.9 mph - N/A   Overcast
2:55 PM 35.6 °F 28.0 °F 32.0 °F 87% 30.34 in 10.0 mi NNW 10.4 mph - N/A   Overcast
3:15 PM 35.6 °F 29.2 °F 32.0 °F 87% 30.35 in 10.0 mi North 8.1 mph - N/A   Overcast
3:35 PM 35.6 °F 27.1 °F 32.0 °F 87% 30.35 in 10.0 mi NNW 12.7 mph 19.6 mph N/A   Overcast
3:55 PM 35.6 °F 29.2 °F 32.0 °F 87% 30.37 in 10.0 mi NW 8.1 mph - N/A   Light Drizzle
4:15 PM 33.8 °F 27.7 °F 32.0 °F 93% 30.37 in 5.0 mi NNW 6.9 mph - N/A Snow Light Snow
4:35 PM 33.8 °F 26.4 °F 32.0 °F 93% 30.38 in 4.0 mi NNW 9.2 mph - N/A Rain Light Rain
4:55 PM 33.8 °F 27.7 °F 32.0 °F 93% 30.40 in 4.0 mi NW 6.9 mph - 0.01 in Snow Light Snow
5:35 PM 32.0 °F 25.6 °F 32.0 °F 100% 30.40 in 1.8 mi North 6.9 mph - 0.03 in Snow Light Snow
5:55 PM 32.0 °F 25.6 °F 32.0 °F 100% 30.41 in 1.5 mi NNW 6.9 mph - 0.05 in Snow Light Snow
6:15 PM 32.0 °F 26.4 °F 32.0 °F 100% 30.41 in 1.2 mi NNW 5.8 mph - 0.01 in Snow Light Snow
6:35 PM 32.0 °F 25.6 °F 32.0 °F 100% 30.42 in 3.0 mi North 6.9 mph - 0.02 in Snow Light Snow
6:55 PM 32.0 °F 26.4 °F 32.0 °F 100% 30.42 in 1.5 mi North 5.8 mph - 0.02 in Snow Light Snow
7:15 PM 32.0 °F 25.6 °F 32.0 °F 100% 30.42 in 1.0 mi North 6.9 mph - 0.02 in Snow Light Snow
7:35 PM 32.0 °F 27.5 °F 32.0 °F 100% 30.43 in 1.0 mi NW 4.6 mph - 0.02 in Snow Light Snow
7:55 PM 32.0 °F 27.5 °F 32.0 °F 100% 30.43 in 1.0 mi NNW 4.6 mph - 0.04 in Snow Light Snow
8:15 PM 32.0 °F 27.5 °F 32.0 °F 100% 30.44 in 0.8 mi NW 4.6 mph - 0.02 in Snow Light Snow
8:35 PM 32.0 °F 27.5 °F 32.0 °F 100% 30.44 in 1.2 mi NNW 4.6 mph - 0.04 in Snow Light Snow
8:55 PM 32.0 °F 27.5 °F 32.0 °F 100% 30.45 in 1.5 mi North 4.6 mph - 0.05 in Snow Light Snow
9:15 PM 32.0 °F 26.4 °F 32.0 °F 100% 30.45 in 1.0 mi North 5.8 mph - 0.02 in Snow Light Snow
9:35 PM 32.0 °F 27.5 °F 32.0 °F 100% 30.46 in 0.8 mi North 4.6 mph - 0.04 in Snow Light Snow
9:55 PM 32.0 °F 28.7 °F 32.0 °F 100% 30.47 in 0.5 mi North 3.5 mph - 0.07 in Snow Snow
10:15 PM 32.0 °F 27.5 °F 32.0 °F 100% 30.47 in 0.8 mi North 4.6 mph - 0.01 in Snow Light Snow
10:35 PM 32.0 °F 28.7 °F 32.0 °F 100% 30.47 in 0.8 mi North 3.5 mph - 0.03 in Snow Light Snow
10:55 PM 32.0 °F 28.7 °F 32.0 °F 100% 30.46 in 0.5 mi NNW 3.5 mph - 0.06 in Snow Snow
11:15 PM 32.0 °F 28.7 °F 32.0 °F 100% 30.46 in 0.8 mi NNW 3.5 mph - 0.02 in Snow Light Snow
11:35 PM 32.0 °F 27.5 °F 32.0 °F 100% 30.47 in 2.0 mi NNW 4.6 mph - 0.03 in Snow Light Snow